Location: *
(52.2090°N, 4.1550°W)
Time: 09:44:42
(UTC+00:00)

Cosmos 1500 Rocket - Pass Details

Date: 21 October 2019
Orbit: 603 x 631 km, 82.5° (Epoch: 14 November)

Event Time Altitude Azimuth Distance (km) Brightness Sun altitude
Rises 20:25:57 0° 349° (N) 2,939 7.5 -30.2°
Reaches altitude 10° 20:28:13 10° 349° (N) 2,025 6.6 -30.6°
Enters shadow 20:29:45 21° 350° (N) 1,417 5.7 -30.8°
